Meteo Giornale » Osservazioni meteo Svezia » Lulea-Kallax
ore: 23:20 - Osservazioni Meteo Lulea-Kallax
Lat. 65° 33' N Lon. 22° 8' E Alt. 17 metri s.l.m.
11 °C
Banco di nebbia
Temp. 24 Ore
10 °C
17 °C
Nord
3.7 Km/h
Dew point 11 °C
Umidità 100 %
Visibilità 0.75 Km
Il sole sorge alle ore 05:08
Il sole tramonta alle ore 19:54
| Data e Ora | Cielo e Fenomeni | T °C | DP °C | Um. % | Pres. hPa | Vis. km | Vento km/h | |
|---|---|---|---|---|---|---|---|---|
| Oggi h: 23:20 | Banco di nebbia | 11 | 11 | 100 | 1002 | 0.75 | N 3.7 | |
| Oggi h: 22:50 | Banco di nebbia | 10 | 10 | 100 | 1002 | 1 | N 0 | |
| Oggi h: 22:20 | Banco di nebbia | 12 | 12 | 100 | 1002 | 0.15 | N 0 | |
| Oggi h: 21:50 | Nebbia | 12 | 12 | 100 | 1002 | 0.5 | N 3.7 | |
| Oggi h: 21:20 | Sereno | 13 | 13 | 100 | 1002 | 10 | N 0 | |
| Oggi h: 20:50 | Sereno | 13 | 13 | 100 | 1002 | 10 | N 0 | |
| Oggi h: 20:20 | Sereno | 14 | 14 | 100 | 1002 | 10 | N 5.5 | |
| Oggi h: 19:50 | Sereno | 14 | 14 | 100 | 1002 | 10 | SE 9.3 | |
| Oggi h: 19:20 | Sereno | 14 | 14 | 100 | 1002 | 10 | S/SE 11.1 | |
| Oggi h: 18:50 | Poco Nuvoloso | 15 | 15 | 100 | 1002 | 10 | S/SE 9.3 | |
| Oggi h: 18:20 | Molto Nuvoloso | 16 | 15 | 93 | 1002 | 10 | SE 11.1 | |
| Oggi h: 17:50 | Nuvoloso | 16 | 16 | 100 | 1002 | 10 | SE 13 | |
| Oggi h: 17:20 | Molto Nuvoloso | 16 | 15 | 93 | 1002 | 10 | S/SE 9.3 | |
| Oggi h: 16:50 | Molto Nuvoloso | 16 | 16 | 100 | 1002 | 10 | S 13 | |
| Oggi h: 16:20 | Nuvoloso | 16 | 15 | 93 | 1002 | 10 | S 14.8 | |
| Oggi h: 15:50 | Molto Nuvoloso | 17 | 15 | 88 | 1002 | 10 | S 13 | |
| Oggi h: 15:20 | Molto Nuvoloso | 16 | 15 | 93 | 1002 | 10 | S 14.8 | |
| Oggi h: 14:50 | Molto Nuvoloso | 16 | 15 | 93 | 1002 | 10 | S 18.5 | |
| Oggi h: 14:20 | Molto Nuvoloso | 16 | 15 | 93 | 1002 | 10 | S 14.8 | |
| Oggi h: 13:50 | Molto Nuvoloso | 17 | 15 | 88 | 1002 | 10 | S 14.8 | |
| Oggi h: 13:20 | Molto Nuvoloso | 17 | 15 | 88 | 1002 | 10 | S/SE 13 | |
| Oggi h: 12:50 | Molto Nuvoloso | 17 | 15 | 88 | 1002 | 10 | S 14.8 | |
| Oggi h: 12:20 | Molto Nuvoloso | 17 | 15 | 88 | 1002 | 10 | S 11.1 | |
| Oggi h: 11:50 | Molto Nuvoloso | 16 | 15 | 93 | 1002 | 10 | S/SE 9.3 | |
| Oggi h: 11:20 | Molto Nuvoloso | 16 | 15 | 93 | 1002 | 10 | S 11.1 | |
| Oggi h: 10:50 | Molto Nuvoloso | 15 | 15 | 100 | 1002 | 10 | S 13 | |
| Oggi h: 10:20 | Molto Nuvoloso | 16 | 15 | 93 | 1002 | 10 | S 11.1 | |
| Oggi h: 09:50 | Molto Nuvoloso | 16 | 15 | 93 | 1002 | 10 | S/SE 7.4 | |
| Oggi h: 09:20 | Molto Nuvoloso | 16 | 16 | 100 | 1002 | 10 | SE 9.3 | |
| Oggi h: 08:50 | Pioviggine Banco di nebbia | 15 | 15 | 100 | 1002 | 3 | N 3.7 | |
| Oggi h: 08:20 | Foschia | 15 | 15 | 100 | 1002 | 3 | S/SE 7.4 | |
| Oggi h: 07:50 | Nebbia | 15 | 15 | 100 | 1002 | 0.8 | N 1.8 | |
| Oggi h: 07:20 | Nebbia | 15 | 15 | 100 | 1002 | 0.6 | N 0 | |
| Oggi h: 06:50 | Foschia | 15 | 15 | 100 | 1002 | 3 | N 0 | |
| Oggi h: 06:20 | Foschia | 15 | 15 | 100 | 1002 | 4 | N 0 | |
| Oggi h: 05:50 | Foschia | 15 | 15 | 100 | 1002 | 5 | N 1.8 | |
| Oggi h: 05:20 | Foschia | 14 | 14 | 100 | 1002 | 6 | N 0 | |
| Oggi h: 04:50 | Foschia | 14 | 14 | 100 | 1002 | 6 | N 0 | |
| Oggi h: 04:20 | Foschia | 14 | 14 | 100 | 1002 | 6 | N 1.8 | |
| Oggi h: 03:50 | Foschia | 14 | 14 | 100 | 1002 | 6 | N 3.7 | |
| Oggi h: 03:20 | Foschia | 14 | 14 | 100 | 1002 | 6 | N 0 | |
| Oggi h: 02:50 | Foschia | 14 | 14 | 100 | 1003 | 7 | N 0 | |
| Oggi h: 02:20 | Foschia | 14 | 14 | 100 | 1003 | 8 | N 1.8 | |
| Oggi h: 01:50 | Foschia | 15 | 15 | 100 | 1003 | 8 | N 1.8 | |
| Oggi h: 01:20 | Coperto | 15 | 15 | 100 | 1003 | 10 | N 0 | |
| Oggi h: 00:50 | Coperto | 15 | 15 | 100 | 1003 | 10 | N 0 | |
| Oggi h: 00:20 | Coperto | 15 | 15 | 100 | 1003 | 10 | N 0 | |
| Ieri h: 23:50 | Coperto | 15 | 15 | 100 | 1003 | 10 | N 1.8 | |



